Location: Miles
(41.4492°N, 81.6087°W)
Time: 08:15:43
(UTC+00:00)

Vanguard 1 Rocket - Pass Details

Date: 19 September 2024
Orbit: 650 x 4218 km, 34.3° (Epoch: 05 October)

Event Time Altitude Azimuth Distance (km) Brightness Sun altitude
Rises 15:07:01 0° 284° (WNW) 7,672 11.7 39.8°
Reaches altitude 10° 15:12:46 10° 276° (W) 6,992 11.6 40.5°
Maximum altitude 15:32:38 32° 224° (SW) 5,704 11.9 43.0°
Drops below altitude 10° 15:51:42 10° 170° (S) 6,606 12.7 45.0°
Sets 15:57:04 0° 161° (SSE) 7,203 12.7 45.5°
